This is the latest recevied weather packets stored in our database for station/object FREPRT-WX. If no packets are shown the sender has not sent any weather packets the latest 10 day(s).
| Time | Temp. | Humidity | Pressure | Rain* | Wind** | Luminosity | Snow |
|---|---|---|---|---|---|---|---|
| 1777891543 | 7.78° C | 78% | 974.7 hPa | 0 mm | - | - | - |
| 1777890662 | 7.78° C | 79% | 974.6 hPa | 0 mm | - | - | - |
| 1777889739 | 8.33° C | 79% | 974.6 hPa | 0 mm | - | - | - |
| 1777888875 | 8.33° C | 79% | 974.6 hPa | 0 mm | - | - | - |
| 1777887942 | 8.33° C | 75% | 975 hPa | 0 mm | - | - | - |
| 1777887061 | 8.33° C | 75% | 974.7 hPa | 0 mm | - | - | - |
| 1777886141 | 8.89° C | 75% | 974.7 hPa | 0 mm | - | - | - |
| 1777885277 | 8.89° C | 75% | 974.1 hPa | 0 mm | - | - | - |
| 1777884342 | 8.89° C | 72% | 974.8 hPa | 0 mm | - | - | - |
| 1777883455 | 8.89° C | 72% | 974.8 hPa | 0 mm | - | - | - |
| 1777882541 | 8.89° C | 72% | 974.8 hPa | 0 mm | - | - | - |
| 1777881672 | 8.89° C | 76% | 975 hPa | 0 mm | - | - | - |
| 1777880741 | 8.89° C | 75% | 975.7 hPa | 0 mm | - | - | - |
| 1777879859 | 8.89° C | 75% | 975.7 hPa | 0 mm | - | - | - |
| 1777878942 | 8.33° C | 75% | 975.7 hPa | 0 mm | - | - | - |
| 1777878070 | 8.33° C | 75% | 975.7 hPa | 0 mm | - | - | - |
| 1777877141 | 8.33° C | 76% | 977.2 hPa | 0 mm | - | - | - |
| 1777876258 | 8.33° C | 76% | 977.2 hPa | 0 mm | - | - | - |
| 1777875341 | 8.33° C | 76% | 977.2 hPa | 0 mm | - | - | - |
| 1777874479 | 8.33° C | 76% | 977.2 hPa | 0 mm | - | - | - |
| 1777873536 | 8.33° C | 76% | 978 hPa | 0 mm | - | - | - |
| 1777872658 | 8.33° C | 76% | 977.5 hPa | 0 mm | - | - | - |
| 1777871740 | 8.33° C | 76% | 977.5 hPa | 0 mm | - | - | - |
| 1777870873 | 8.33° C | 76% | 977.5 hPa | 0 mm | - | - | - |
| 1777869937 | 8.33° C | 75% | 977.9 hPa | 0 mm | - | - | - |
* Rain latest hour (hover to see other rain measurements)
** Current wind speed in m/s (hover to see current wind gust speed)